Le nostre stazioni meteo in Italia

Pubblicità
Il mio iltempo24.it
Bournemouth Airport, Gran Bretagna (3862): Temperatura & dewpoint: 21.04.2017 17:00:00 - 27.04.2017 17:00:00 (BST)Bournemouth Airport, Gran Bretagna (3862): Temperatura -20cm & Temperatura -100cm: 21.04.2017 17:00:00 - 27.04.2017 17:00:00 (BST)Bournemouth Airport, Gran Bretagna (3862): velocità del vento & gusts: 21.04.2017 17:00:00 - 27.04.2017 17:00:00 (BST)Bournemouth Airport, Gran Bretagna (3862): direzione del vento: 21.04.2017 17:00:00 - 27.04.2017 17:00:00 (BST)Bournemouth Airport, Gran Bretagna (3862): reduced air pressure: 21.04.2017 17:00:00 - 27.04.2017 17:00:00 (BST)Bournemouth Airport, Gran Bretagna (3862): visibility: 21.04.2017 17:00:00 - 27.04.2017 17:00:00 (BST)Bournemouth Airport, Gran Bretagna (3862): ore di luce: 21.04.2017 17:00:00 - 27.04.2017 17:00:00 (BST)Bournemouth Airport, Gran Bretagna (3862): precipitazioni: 21.04.2017 17:00:00 - 27.04.2017 17:00:00 (BST)
Data & Tempo tt [°C] td [°C] tt -20cm [°C] tt -100cm [°C] ff [km/h] ff [kn] fx [km/h] fx [kn] dd ppp [hPa] vv [km] sd [min] rr [mm]
27.04.2017 17:00:00 11,0 3,5 - - 22 12 - - ONO 1018,8 10 0 0,0
27.04.2017 16:00:00 10,9 1,5 - - 22 12 - - NO 1019,3 10 0 0,0
27.04.2017 15:00:00 11,8 -0,9 - - 21 11 - - NNO 1019,4 10 6 0,0
27.04.2017 14:00:00 12,4 -1,4 - - 15 8 - - N 1019,5 10 42 0,0
27.04.2017 13:00:00 12,0 -2,1 - - 15 8 - - ONO 1020,1 10 60 0,0
27.04.2017 12:00:00 10,3 -1,8 - - 18 10 - - ONO 1020,7 30 42 0,0
27.04.2017 11:00:00 9,2 -0,9 - - 21 11 - - ONO 1021,3 10 54 0,0
27.04.2017 10:00:00 8,9 1,3 11,7 11,0 13 7 - - NO 1021,4 10 60 0,0
27.04.2017 09:00:00 5,3 2,0 - - 2 1 - - S 1021,7 10 60 0,0
27.04.2017 08:00:00 1,2 0,4 - - 4 2 - - NNE 1021,7 10 48 0,0
27.04.2017 07:00:00 -2,0 -2,9 - - 2 1 - - ONO 1021,5 10 12 0,0
27.04.2017 06:00:00 -2,7 -3,6 - - 4 2 - - N 1021,4 18 0 0,0
27.04.2017 05:00:00 -2,4 -3,0 - - 4 2 - - N 1021,5 20 0 0,0
27.04.2017 04:00:00 -2,8 -3,7 - - 4 2 - - ONO 1021,4 17 0 0,0
27.04.2017 03:00:00 -1,1 -1,9 - - 0 0 - - N 1021,6 21 0 0,0
27.04.2017 02:00:00 -0,6 -1,5 - - 4 2 - - ONO 1021,7 22 0 0,0
27.04.2017 01:00:00 -0,6 -2,0 - - 4 2 - - NNO 1021,6 22 - 0,0
27.04.2017 00:00:00 0,6 -1,1 - - 2 1 - - O 1021,4 10 0 0,0
26.04.2017 23:00:00 2,0 -0,4 - - 4 2 - - NO 1021,2 10 0 0,0
26.04.2017 22:00:00 3,7 -0,1 - - 8 4 - - NNE 1021,1 10 0 0,0
26.04.2017 21:00:00 5,5 0,7 - - 11 6 - - ENE 1020,4 10 0 0,0
26.04.2017 20:00:00 6,8 0,2 - - 21 11 - - NE 1020,1 10 18 0,0
26.04.2017 19:00:00 9,1 0,3 - - 15 8 - - NNE 1019,3 10 24 0,2
26.04.2017 18:00:00 9,3 -0,6 - - 21 11 - - ENE 1018,8 10 42 0,0
26.04.2017 17:00:00 10,0 0,1 - - 26 14 - - N 1018,6 10 18 0,0
26.04.2017 16:00:00 9,8 0,3 - - 11 6 - - NNE 1018,5 10 30 0,6
26.04.2017 15:00:00 12,8 -0,5 - - 24 13 - - N 1018,5 10 42 0,0
26.04.2017 14:00:00 11,2 -1,6 - - 24 13 - - N 1018,7 10 36 0,0
26.04.2017 13:00:00 10,5 -0,8 - - 22 12 - - NNE 1018,8 10 48 0,0
26.04.2017 12:00:00 9,0 0,0 - - 26 14 - - N 1019,0 10 24 0,0
26.04.2017 11:00:00 6,9 0,5 - - 26 14 - - N 1019,1 10 0 0,0
26.04.2017 10:00:00 6,4 0,8 12,0 11,0 24 13 - - N 1018,9 10 36 0,0
26.04.2017 09:00:00 5,8 1,5 - - 24 13 - - N 1018,7 10 60 0,0
26.04.2017 08:00:00 3,7 0,8 - - 24 13 - - N 1018,5 10 60 0,0
26.04.2017 07:00:00 1,6 0,1 - - 11 6 - - N 1018,0 10 30 0,0
26.04.2017 06:00:00 -0,1 -1,0 - - 9 5 - - N 1017,4 10 0 0,0
26.04.2017 05:00:00 0,2 -1,0 - - 13 7 - - N 1017,1 19 0 0,0
26.04.2017 04:00:00 0,4 -0,3 - - 11 6 - - N 1017,1 20 0 0,0
26.04.2017 03:00:00 -0,4 -1,5 - - 8 4 - - NNO 1017,0 21 0 0,0
26.04.2017 02:00:00 1,3 0,0 - - 13 7 - - N 1016,9 29 0 0,0
26.04.2017 01:00:00 1,3 0,0 - - 13 7 - - N 1017,0 40 - 0,0
26.04.2017 00:00:00 1,2 0,1 - - 13 7 - - N 1016,9 35 0 0,0
25.04.2017 23:00:00 1,7 0,3 - - 11 6 - - NNO 1016,7 10 0 0,0
25.04.2017 22:00:00 3,9 1,0 - - 11 6 - - N 1016,2 10 0 0,0
25.04.2017 21:00:00 4,9 0,7 - - 28 15 - - N 1015,9 10 6 0,0
25.04.2017 20:00:00 5,2 -0,6 - - 22 12 - - NNO 1014,7 10 12 0,0
25.04.2017 19:00:00 8,4 -2,3 - - 15 8 - - N 1014,3 10 54 0,0
25.04.2017 18:00:00 8,4 0,4 - - 16 9 54 29 NNO 1014,4 10 6 0,0
25.04.2017 17:00:00 11,2 -3,8 - - 18 10 - - NNE 1013,9 10 42 0,0
25.04.2017 16:00:00 10,6 -5,1 - - 16 9 - - NNE 1014,2 10 24 0,0
25.04.2017 15:00:00 10,7 -4,7 - - 24 13 - - N 1014,7 10 36 0,0
25.04.2017 14:00:00 10,4 -4,5 - - 24 13 46 25 N 1014,8 10 48 0,0
25.04.2017 13:00:00 9,6 -1,5 - - 24 13 - - N 1014,9 10 42 0,0
25.04.2017 12:00:00 8,9 -3,3 - - 24 13 - - N 1014,9 10 48 0,0
25.04.2017 11:00:00 7,9 -3,0 - - 22 12 - - N 1014,9 10 30 0,0
25.04.2017 10:00:00 7,9 -1,5 12,7 11,0 24 13 - - NNO 1014,9 10 42 0,0
25.04.2017 09:00:00 7,1 -0,3 - - 13 7 - - NNO 1014,9 10 60 0,0
25.04.2017 08:00:00 4,3 -1,9 - - 11 6 - - ONO 1014,9 10 60 0,0
25.04.2017 07:00:00 0,4 -3,3 - - 4 2 - - OSO 1015,0 10 30 0,0
25.04.2017 06:00:00 -0,8 -3,9 - - 5 3 - - O 1014,7 35 0 0,0
25.04.2017 05:00:00 -0,6 -4,6 - - 5 3 - - ONO 1014,7 27 0 0,0
25.04.2017 04:00:00 0,4 -4,4 - - 5 3 - - NO 1014,8 45 0 0,0
25.04.2017 03:00:00 1,9 -4,6 - - 11 6 - - N 1015,0 40 0 0,0
25.04.2017 02:00:00 3,9 -4,0 - - 21 11 - - N 1015,3 45 0 0,0
25.04.2017 01:00:00 4,3 -3,3 - - 15 8 - - N 1015,0 23 - 0,0
25.04.2017 00:00:00 6,5 -3,2 - - 22 12 - - N 1014,6 35 0 0,0
24.04.2017 23:00:00 7,7 2,1 - - 21 11 - - OSO 1014,8 10 0 0,0
24.04.2017 22:00:00 7,9 4,1 - - 16 9 - - N 1014,7 35 0 0,0
24.04.2017 21:00:00 7,9 5,0 - - 29 16 48 26 N 1014,2 10 6 0,0
24.04.2017 20:00:00 11,5 5,7 - - 26 14 - - NO 1013,2 10 0 0,0
24.04.2017 19:00:00 12,4 5,1 - - 24 13 - - NO 1013,3 10 0 0,0
24.04.2017 18:00:00 13,3 5,1 - - 24 13 - - ONO 1013,6 10 0 0,0
24.04.2017 17:00:00 14,0 5,5 - - 22 12 - - ONO 1013,8 10 0 0,0
24.04.2017 16:00:00 13,8 5,8 - - 24 13 - - ONO 1014,4 10 0 0,0
24.04.2017 15:00:00 15,3 6,6 - - 26 14 - - O 1015,1 10 0 0,0
24.04.2017 14:00:00 15,6 6,4 - - 18 10 - - NO 1015,6 10 6 0,0
24.04.2017 13:00:00 14,9 5,7 - - 18 10 - - NNO 1016,5 10 0 0,0
24.04.2017 12:00:00 14,3 5,6 - - 15 8 - - ONO 1017,3 10 6 0,0
24.04.2017 11:00:00 14,3 5,9 - - 21 11 - - NO 1017,9 10 18 0,0
24.04.2017 10:00:00 12,4 5,8 12,7 11,0 15 8 - - NNO 1018,3 10 6 0,0
24.04.2017 09:00:00 11,1 6,6 - - 15 8 - - NO 1018,6 10 48 0,0
24.04.2017 08:00:00 7,2 6,8 - - 5 3 - - - 1019,1 10 48 0,0
24.04.2017 07:00:00 3,6 3,1 - - 5 3 - - O 1019,2 8 18 0,0
24.04.2017 06:00:00 3,3 2,7 - - 4 2 - - O 1019,4 6 0 0,0
24.04.2017 05:00:00 3,5 2,7 - - 5 3 - - O 1019,8 - 0 0,0
24.04.2017 04:00:00 5,6 4,8 - - 2 1 - - NNO 1020,3 5 0 0,0
24.04.2017 03:00:00 7,4 6,0 - - 2 1 - - ONO 1020,7 9 0 0,0
24.04.2017 02:00:00 10,0 8,2 - - 4 2 - - O 1021,4 10 0 0,0
24.04.2017 01:00:00 10,0 8,2 - - 5 3 - - OSO 1022,0 7 - 0,0
24.04.2017 00:00:00 10,0 8,1 - - 8 4 - - O 1022,6 10 0 0,0
23.04.2017 23:00:00 9,5 8,0 - - 8 4 - - O 1022,9 10 0 0,0
23.04.2017 22:00:00 7,5 4,9 - - 9 5 - - O 1023,4 20 0 0,0
23.04.2017 21:00:00 9,2 5,0 - - 9 5 - - O 1023,4 10 0 0,0
23.04.2017 20:00:00 12,2 6,3 - - 15 8 - - OSO 1023,4 10 48 0,0
23.04.2017 19:00:00 14,1 5,1 - - 16 9 - - OSO 1023,6 10 12 0,0
23.04.2017 18:00:00 14,7 5,6 - - 15 8 - - O 1023,9 10 6 0,0
23.04.2017 17:00:00 14,4 4,9 - - 11 6 - - O 1024,2 10 6 0,0
23.04.2017 16:00:00 14,5 4,0 - - 13 7 - - S 1024,8 10 0 0,0
23.04.2017 15:00:00 13,6 4,6 - - 15 8 - - S 1025,5 10 6 0,0
23.04.2017 14:00:00 14,0 5,8 - - 18 10 - - S 1026,0 10 12 0,0
23.04.2017 13:00:00 15,2 3,2 - - 9 5 - - NO 1026,2 10 36 0,0
23.04.2017 12:00:00 15,4 5,2 - - 9 5 - - ENE 1026,9 10 60 0,0
23.04.2017 11:00:00 13,3 4,8 - - 11 6 - - - 1027,4 10 60 0,0
23.04.2017 10:00:00 10,9 5,0 12,7 11,0 9 5 - - NNO 1027,6 10 42 0,0
23.04.2017 09:00:00 8,6 4,5 - - 4 2 - - - 1027,7 10 60 0,0
23.04.2017 08:00:00 5,6 3,8 - - 5 3 - - NNO 1027,8 10 60 0,0
23.04.2017 07:00:00 2,0 0,6 - - 4 2 - - N 1027,8 10 24 0,0
23.04.2017 06:00:00 1,6 0,6 - - 2 1 - - - 1027,5 10 0 0,0
23.04.2017 05:00:00 2,0 1,1 - - 2 1 - - O 1027,6 19 0 0,0
23.04.2017 04:00:00 2,6 1,1 - - 5 3 - - N 1027,5 16 0 0,0
23.04.2017 03:00:00 3,5 2,8 - - 5 3 - - NNE 1027,8 12 0 0,0
23.04.2017 02:00:00 3,1 2,4 - - 8 4 - - O 1028,0 5 0 0,0
23.04.2017 01:00:00 4,0 3,1 - - 9 5 - - N 1028,1 13 - 0,0
23.04.2017 00:00:00 4,9 3,2 - - 5 3 - - N 1028,0 19 0 0,0
22.04.2017 23:00:00 6,5 2,8 - - 2 1 - - - 1028,0 10 0 0,0
22.04.2017 22:00:00 8,0 1,9 - - 5 3 - - ENE 1027,6 10 0 0,0
22.04.2017 21:00:00 10,7 1,1 - - 9 5 - - N 1027,1 10 6 0,0
22.04.2017 20:00:00 13,4 1,5 - - 13 7 - - N 1026,8 10 60 0,0
22.04.2017 19:00:00 15,3 1,7 - - 15 8 - - NNE 1026,8 10 60 0,0
22.04.2017 18:00:00 16,0 2,0 - - 15 8 - - NE 1027,0 10 60 0,0
22.04.2017 17:00:00 16,7 3,0 - - 16 9 - - N 1027,0 10 54 0,0
22.04.2017 16:00:00 16,6 2,3 - - 11 6 - - NO 1027,5 10 60 0,0
22.04.2017 15:00:00 16,3 5,1 - - 13 7 - - - 1027,9 10 48 0,0
22.04.2017 14:00:00 14,4 5,7 - - 16 9 - - N 1028,7 10 18 0,0
22.04.2017 13:00:00 13,8 5,9 - - 21 11 - - NNE 1029,0 10 24 0,0
22.04.2017 12:00:00 13,3 7,5 - - 16 9 - - ESE 1029,4 10 6 0,0
22.04.2017 11:00:00 13,1 6,8 - - 13 7 - - N 1029,6 10 30 0,0
22.04.2017 10:00:00 13,2 8,1 12,7 10,9 15 8 - - N 1029,8 10 0 0,0
22.04.2017 09:00:00 11,7 7,2 - - 11 6 - - N 1029,9 10 0 0,0
22.04.2017 08:00:00 10,8 7,4 - - 9 5 - - NO 1029,7 10 0 0,0
22.04.2017 07:00:00 9,7 7,6 - - 5 3 - - O 1029,4 10 0 0,0
22.04.2017 06:00:00 9,9 6,8 - - 8 4 - - ONO 1029,1 25 0 0,0
22.04.2017 05:00:00 9,8 6,6 - - 5 3 - - NO 1029,1 28 0 0,0
22.04.2017 04:00:00 9,9 6,6 - - 5 3 - - NO 1029,3 27 0 0,0
22.04.2017 03:00:00 9,9 6,6 - - 8 4 - - NNO 1029,6 25 0 0,0
22.04.2017 02:00:00 10,1 6,5 - - 9 5 - - NO 1030,0 26 0 0,0
22.04.2017 01:00:00 10,3 6,9 - - 5 3 - - O 1030,3 20 - 0,0
22.04.2017 00:00:00 10,9 7,5 - - 5 3 - - NNO 1030,4 22 0 0,0
21.04.2017 23:00:00 11,9 7,1 - - 5 3 - - NNE 1030,5 10 0 0,0
21.04.2017 22:00:00 12,2 7,1 - - 8 4 - - N 1030,6 10 0 0,0
21.04.2017 21:00:00 12,4 8,3 - - 8 4 - - ONO 1030,3 10 0 0,0
21.04.2017 20:00:00 13,2 9,3 - - 9 5 - - ONO 1030,0 10 0 0,0
21.04.2017 19:00:00 13,6 9,8 - - 8 4 - - O 1030,2 10 0 0,0
21.04.2017 18:00:00 14,0 9,6 - - 11 6 - - O 1030,4 10 0 0,0
21.04.2017 17:00:00 14,0 9,5 - - 11 6 - - OSO 1030,6 10 0 0,0

tt = Temperatura
td = dewpoint
tt -20cm = Temperatura -20cm
tt -100cm = Temperatura -100cm
ff = velocità del vento
fx = gusts
dd = direzione del vento
ppp = reduced air pressure
vv = visibility
sd = ore di luce
rr = precipitazioni

Stazioni seguenti

WeatherPro
AMSI
MeteoEarth